Location: Tamazert
(32.6352°N, 5.2072°W)
Time: 15:42:03
(UTC+00:00)

Cosmos 962 Rocket - Pass Details

Date: 22 May 2022
Orbit: 950 x 1000 km, 82.9° (Epoch: 28 June)

Event Time Altitude Azimuth Distance (km) Brightness Sun altitude
Rises 03:47:24 0° 353° (N) 3,635 7.9 -17.0°
Reaches altitude 10° 03:49:54 10° 352° (N) 2,683 7.2 -16.6°
Maximum altitude 03:56:02 84° 266° (W) 959 4.4 -15.6°
Drops below altitude 10° 04:02:07 10° 179° (S) 2,665 6.5 -14.6°
Sets 04:04:36 0° 178° (S) 3,609 7.1 -14.2°
